{"data":{"norad_id":45161,"epoch":"2026-09-20T02:56:39.259104Z","epoch_age_seconds":46878,"freshness":"FRESH","line1":"1 45161U 20008AG  26263.12267661 -.00000636  00000+0 -18588-2 0  9995","line2":"2 45161  87.8896  17.3754 0001698  92.8934 267.2388 13.10373540320852","mean_motion":13.1037354,"eccentricity":0.0001698,"inclination_deg":87.8896,"raan_deg":17.3754,"arg_perigee_deg":92.8934,"mean_anomaly_deg":267.2388,"bstar":-0.0018588,"rev_number":32085,"period_min":109.89232886983,"perigee_km":1220.4239005319,"apogee_km":1223.0048100522,"semimajor_km":7599.851355292,"source":"CELESTRAK","updated_at":"2026-09-20T09:00:44.550910Z"}}